Simultaneous Nadir Overpasses (SNOs) Predictions

Prediction of SNOs between NOAA-19 and NPP Satellite Orbit:

Table of predicted SNOs for the next 14.0 days since TLE Epoch: 11/15/2013
Index Date (NOAA-19) Time (NOAA-19) Lat,Lon (NOAA-19) SZA (NOAA-19 ) Date (NPP) Time (NPP) Lat,Lon (NPP) SZA (NPP ) Distance(km) Time Diff (sec)
1 11/24/2013 05:27:15 80.98, 44.45 104.65 11/24/2013 05:28:19 80.97, 44.58 104.60 2.31 64
2 11/24/2013 06:18:22 -80.97,-148.22 75.36 11/24/2013 06:19:04 -80.97,-148.10 75.40 2.26 42
3 11/24/2013 07:09:18 80.97, 19.38 104.61 11/24/2013 07:09:48 80.96, 19.53 104.57 2.66 30
4 11/24/2013 08:00:25 -80.96,-173.30 75.40 11/24/2013 08:00:33 -80.96,-173.15 75.43 2.66 8
5 11/24/2013 08:51:21 80.95, -5.69 104.56 11/24/2013 08:51:17 80.95, -5.52 104.54 3.03 4
6 11/24/2013</
